P/L 153 DEB, 19245

Orbit data source: Space-Track

P/L 153 DEB, 19245 is space debris in LEO originally from a launch on Wed, 31 May 1967 UTC launched from the Air Force Western Test Range (AFWTR). Debris objects in space refer to the collection of defunct objects orbiting the Earth. Examples of debris include non-operational satellites, rocket bodies, and fragments generated from explosions, collisions, or faulty payload assembly.

Loading next visibility...
Identifier
19245, 1967-053K
Orbit
LEO
Country
Flag of USUS
Related business
Manufacturer
Unknown
Mission
Spacecraft
Bus & Motor
Unknown
Mass
Unknown
Launch date (UTC)
1967-05-31 (58 years ago)
Launch vehicle
Unknown
Launch site
Air Force Western Test Range (AFWTR)
Object type
Payload
Rocket body
Debris
Shape & HBR
Unknown
Radar Cross Section
Small (<0.1 m²)

Expand to show TLE details & history
Last TLE update: 22 hours ago

TLE from 22 hours ago
0 P/L 153 DEB
1 19245U 67053K   25242.11309994  .00000735  00000-0  35536-3 0  9993
2 19245  69.9553 269.6545 0003882 209.1800 219.7323 14.22428110988904
Epoch: 2025-08-30T02:42Z
TLE epoch observation values (Epoch: 2025-08-30T02:42:51.834Z)
Latitude
61.31453°
Longitude
-68.06207°
Altitude
829.17 km
Speed
7.443 km/s
True Right ascension
20h 44m 49s
True Declination
61° 10' 15"
Sunlit
Object was in daylight at epoch
Visualization orbit readout
Latitude
Unknown
Longitude
Unknown
Altitude
Unknown
Speed
Unknown
Apparent Right ascension
Unknown
Apparent Declination
Unknown
Sunlit
N/A
Visualization observer readout
Local Sidereal Time
15:52:18
Azimuth
Unknown
Elevation
Unknown
Doppler factor
Unknown
Orbital elements
Apogee altitude
817.968 km
Perigee altitude
812.383 km
Semi-major axis
7,193.313 km
Eccentricity
0.00039
Inclination
69.9553°
RAAN
269.6545°
Arg. of periapsis
209.18°
True anomaly
219.70388°
Mean anomaly
219.7323°
Eccentric anomaly
219.71809°
Mean motion
3.55754 °/min
Orbital period
101.19 mins
BSTAR
0.00035536
Loading maneuver chart data...
Computing Atmospheric mass density...
Loading historical data...
Loading historical data...
Loading historical data...
Loading historical data...
Loading historical data...
Loading historical data...
Loading historical data...

Documentation

Showing up to 5 results
|